Content
SEND FEEDBACK

Daily
Averages
Monthly
Summary
United States of America

ASHEVILLE, NORTH CAROLINA


Home > North America > United States > North Carolina
Elevation: 2240 feet     Latitude: 35 36N     Longitude: 082 32W

WEATHER
 
SELECT A DAY
Number of Records: 229,440;   Date Range: 1/1/95 - 10/20/14
 
SHARE

PRINT THIS DATA

[ ← Previous Day ]
WEATHER ALMANAC - DECEMBER 17, 2013
[ Next Day → ]
[ °C ]   °F
Weather ElementAverageHighLow
Temperature43.1 °F61 °F (1:54 pm)27 °F (2:54 am)
Dewpoint26 °F30.9 °F (9:54 am)19 °F (11:54 pm)
Humidity57.1 %92 % (3:54 am)25 % (1:54 pm)
Barometer30.06 in30.15 in (2:54 am)29.95 in (5:54 pm)
Wind Speed8 mph20.7 mph (10:54 pm)
Wind Gust32.2 mph (8:54 pm)
Weather ElementAverage
Visibility10 mi
Wind DirectionWSW (231.3 °)

Weather ElementTotal
Precipitation---
Heating Degree Days21 (Base 65)
Averaged from 23 records on December 17, 2013
WEATHER CONDITIONS BREAKOUT
WIND DIRECTION BREAKOUT
WEATHER BY HOUR - DECEMBER 17, 2013
[ °C ]   °F
Local TimeTemperatureDewpointHumidityBarometerVisibilityWind DirectionWind SpeedGust SpeedPrecipitationEventsConditions
1:54 AM28.9 °F25.0 °F85 %30.14 in10.0 miCalmClear
2:54 AM27.0 °F24.1 °F89 %30.15 in10.0 miNNW (340°)4.6 mphClear
3:54 AM27.0 °F25.0 °F92 %30.15 in10.0 miNNW (340°)3.5 mphClear
4:54 AM28.0 °F25.0 °F88 %30.14 in10.0 miCalmClear
5:54 AM27.0 °F25.0 °F92 %30.14 in10.0 miCalmClear
6:54 AM28.0 °F25.0 °F88 %30.14 in10.0 miNNW (330°)3.5 mphClear
7:54 AM28.0 °F25.0 °F88 %30.15 in10.0 miWNW (300°)3.5 mphClear
8:54 AM32.0 °F28.9 °F88 %30.14 in10.0 miSSW (210°)3.5 mphClear
9:54 AM39.0 °F30.9 °F73 %30.14 in10.0 miSouth (180°)3.5 mphClear
10:54 AM46.0 °F30.9 °F56 %30.12 in10.0 miSSW (210°)3.5 mphClear
11:54 AM54.0 °F30.0 °F40 %30.05 in10.0 miNorth (10°)3.5 mphClear
12:54 PM59.0 °F28.0 °F31 %29.99 in10.0 miNNE (20°)3.5 mphClear
1:54 PM61.0 °F25.0 °F25 %29.96 in10.0 miNW (320°)18.4 mph24.2 mphClear
2:54 PM60.1 °F25.0 °F26 %29.96 in10.0 miWNW (300°)8.1 mph27.6 mphClear
3:54 PM59.0 °F25.0 °F27 %29.96 in10.0 miWest (280°)13.8 mph28.8 mphClear
4:54 PM55.9 °F25.0 °F30 %29.96 in10.0 miWest (260°)11.5 mph18.4 mphClear
5:54 PM55.0 °F24.1 °F30 %29.95 in10.0 miWest (270°)12.7 mph25.3 mphClear
6:54 PM53.1 °F26.1 °F35 %29.99 in10.0 miNW (310°)15.0 mph19.6 mphPartly Cloudy
7:54 PM51.1 °F27.0 °F39 %30.00 in10.0 miWNW (290°)9.2 mph20.7 mphScattered Clouds
8:54 PM46.9 °F30.9 °F54 %30.01 in10.0 miNNW (340°)16.1 mph32.2 mphMostly Cloudy
9:54 PM45.0 °F26.1 °F48 %30.04 in10.0 miNNW (330°)16.1 mph28.8 mphClear
10:54 PM42.1 °F21.9 °F45 %30.06 in10.0 miNNW (330°)20.7 mph32.2 mphClear
11:54 PM39.0 °F19.0 °F45 %30.06 in10.0 miNorth (350°)9.2 mph25.3 mphClear
Hourly data recorded from KAVL, located miles away from Asheville, North Carolina







STORIES FROM OUR PARTNERS